| time (UTC) | temp F | wind direction | speed knots | gust knots | rain 1hr in | rain 24hr in | rain mn in | humidity % | barometer mb |
| 20260506185352 | 57 | 305 | 0.0 | 0.9 | 0.00 | 0.16 | 0.16 | 89 | 1016.4 |
| 20260506184849 | 57 | 344 | 0.9 | 0.9 | 0.00 | 0.16 | 0.16 | 89 | 1016.4 |
| 20260506184346 | 57 | 343 | 1.7 | 2.6 | 0.00 | 0.16 | 0.16 | 89 | 1016.0 |
| 20260506183843 | 57 | 356 | 0.0 | 0.9 | 0.00 | 0.16 | 0.16 | 91 | 1015.8 |
| 20260506183338 | 57 | 123 | 0.0 | 0.0 | 0.00 | 0.16 | 0.16 | 91 | 1015.6 |
| 20260506182836 | 56 | 179 | 0.9 | 1.7 | 0.00 | 0.16 | 0.16 | 93 | 1015.3 |
| 20260506182333 | 56 | 296 | 0.0 | 0.9 | 0.00 | 0.16 | 0.16 | 94 | 1014.8 |
| 20260506181831 | 55 | 294 | 0.9 | 0.9 | 0.00 | 0.16 | 0.16 | 95 | 1014.6 |
| 20260506181329 | 56 | 262 | 1.7 | 1.7 | 0.00 | 0.16 | 0.16 | 96 | 1014.6 |
| 20260506180825 | 55 | 277 | 0.9 | 1.7 | 0.00 | 0.16 | 0.16 | 96 | 1014.9 |
| 20260506180321 | 55 | 13 | 5.2 | 7.8 | 0.00 | 0.16 | 0.16 | 96 | 1014.6 |
| 20260506175818 | 55 | 26 | 0.9 | 1.7 | 0.00 | 0.16 | 0.16 | 97 | 1014.7 |
| 20260506175315 | 54 | 353 | 0.9 | 1.7 | 0.00 | 0.16 | 0.16 | 97 | 1015.0 |
| 20260506174812 | 54 | 137 | 1.7 | 2.6 | 0.00 | 0.16 | 0.16 | 97 | 1015.4 |
| 20260506174309 | 54 | 9 | 2.6 | 5.2 | 0.00 | 0.16 | 0.16 | 97 | 1015.5 |
| 20260506173807 | 55 | 300 | 1.7 | 1.7 | 0.00 | 0.16 | 0.16 | 97 | 1015.6 |
| 20260506173303 | 55 | 231 | 1.7 | 2.6 | 0.00 | 0.16 | 0.16 | 97 | 1015.9 |
| 20260506172800 | 54 | 13 | 0.0 | 0.9 | 0.05 | 0.16 | 0.16 | 97 | 1016.0 |
| 20260506172257 | 54 | 12 | 0.9 | 1.7 | 0.05 | 0.16 | 0.16 | 97 | 1015.9 |
| 20260506171754 | 54 | 86 | 0.0 | 0.0 | 0.00 | 0.15 | 0.15 | 97 | 1015.9 |
| 20260506171251 | 54 | 342 | 0.9 | 0.9 | 0.00 | 0.15 | 0.15 | 97 | 1015.9 |
| 20260506170749 | 54 | 273 | 0.0 | 0.9 | 0.00 | 0.15 | 0.15 | 97 | 1016.0 |
| 20260506170245 | 53 | 329 | 8.7 | 9.6 | 0.00 | 0.15 | 0.15 | 96 | 1015.8 |
| 20260506165744 | 53 | 22 | 5.2 | 7.8 | 0.00 | 0.15 | 0.15 | 96 | 1015.3 |
| 20260506165240 | 53 | 279 | 2.6 | 2.6 | 0.00 | 0.15 | 0.15 | 97 | 1015.6 |
| 20260506164737 | 54 | 24 | 2.6 | 2.6 | 0.00 | 0.15 | 0.15 | 96 | 1015.9 |
| 20260506164234 | 54 | 355 | 2.6 | 4.3 | 0.00 | 0.15 | 0.15 | 96 | 1015.8 |
| 20260506163731 | 54 | 336 | 4.3 | 7.0 | 0.00 | 0.15 | 0.15 | 96 | 1016.0 |
| 20260506163226 | 55 | 306 | 2.6 | 4.3 | 0.00 | 0.15 | 0.15 | 96 | 1016.1 |
| 20260506162722 | 55 | 293 | 0.0 | 0.9 | 0.00 | 0.15 | 0.15 | 97 | 1016.2 |
| 20260506162220 | 56 | 328 | 0.9 | 0.9 | 0.00 | 0.15 | 0.15 | 96 | 1016.0 |
| 20260506161712 | 54 | 313 | 0.9 | 1.7 | 0.00 | 0.15 | 0.15 | 97 | 1016.3 |
| 20260506161209 | 55 | 160 | 2.6 | 4.3 | 0.00 | 0.15 | 0.15 | 96 | 1016.4 |
| 20260506160706 | 54 | 322 | 0.0 | 0.0 | 0.00 | 0.15 | 0.15 | 96 | 1016.1 |
| 20260506160203 | 54 | 194 | 0.9 | 1.7 | 0.00 | 0.15 | 0.15 | 95 | 1016.4 |
| 20260506155701 | 54 | 303 | 1.7 | 1.7 | 0.00 | 0.15 | 0.15 | 95 | 1016.0 |
| 20260506155158 | 54 | 345 | 0.9 | 1.7 | 0.00 | 0.15 | 0.15 | 95 | 1015.4 |
| 20260506153306 | 54 | 258 | 0.9 | 0.9 | 0.12 | 0.02 | 0.02 | 88 | 1018.0 |
| 20260506152802 | 55 | 259 | 0.9 | 0.9 | 0.00 | 0.00 | 0.00 | 87 | 1017.6 |
| 20260506152300 | 55 | 275 | 0.9 | 0.9 | 0.00 | 0.00 | 0.00 | 87 | 1017.4 |
| 20260506151759 | 54 | 323 | 0.9 | 0.9 | 0.00 | 0.00 | 0.00 | 86 | 1017.4 |
| 20260506151255 | 55 | 252 | 1.7 | 2.6 | 0.00 | 0.00 | 0.00 | 86 | 1016.6 |
| 20260506150751 | 55 | 0 | 0.9 | 2.6 | 0.00 | 0.00 | 0.00 | 86 | 1016.8 |
| 20260506150249 | 55 | 287 | 0.9 | 1.7 | 0.00 | 0.00 | 0.00 | 85 | 1016.3 |
| 20260506145745 | 55 | 1 | 0.9 | 1.7 | 0.00 | 0.00 | 0.00 | 85 | 1016.3 |
| 20260506145242 | 55 | 305 | 0.9 | 0.9 | 0.00 | 0.00 | 0.00 | 85 | 1015.5 |
| 20260506144740 | 55 | 326 | 3.5 | 4.3 | 0.00 | 0.00 | 0.00 | 84 | 1015.7 |
| 20260506144236 | 55 | 322 | 1.7 | 2.6 | 0.00 | 0.00 | 0.00 | 84 | 1016.1 |
| 20260506143734 | 55 | 306 | 2.6 | 4.3 | 0.00 | 0.00 | 0.00 | 84 | 1016.2 |
| 20260506143231 | 55 | 301 | 0.9 | 1.7 | 0.00 | 0.00 | 0.00 | 84 | 1016.2 |
| 20260506142730 | 55 | 42 | 0.9 | 1.7 | 0.00 | 0.00 | 0.00 | 84 | 1016.1 |
| 20260506142227 | 54 | 355 | 0.0 | 0.0 | 0.00 | 0.00 | 0.00 | 85 | 1015.9 |
| 20260506141725 | 54 | 326 | 4.3 | 7.0 | 0.00 | 0.00 | 0.00 | 85 | 1015.8 |
| 20260506141223 | 54 | 346 | 2.6 | 4.3 | 0.00 | 0.00 | 0.00 | 85 | 1015.8 |
| 20260506140721 | 54 | 353 | 2.6 | 4.3 | 0.00 | 0.00 | 0.00 | 86 | 1015.7 |
| 20260506140217 | 54 | 357 | 4.3 | 6.1 | 0.00 | 0.00 | 0.00 | 86 | 1015.5 |
| 20260506135714 | 54 | 228 | 2.6 | 4.3 | 0.00 | 0.00 | 0.00 | 87 | 1015.5 |
| 20260506135211 | 54 | 21 | 0.9 | 1.7 | 0.00 | 0.00 | 0.00 | 87 | 1015.2 |
| 20260506134707 | 54 | 320 | 0.9 | 0.9 | 0.00 | 0.00 | 0.00 | 88 | 1015.3 |
| 20260506134204 | 54 | 315 | 4.3 | 6.1 | 0.00 | 0.00 | 0.00 | 88 | 1015.2 |
| 20260506133701 | 54 | 353 | 5.2 | 7.8 | 0.00 | 0.00 | 0.00 | 87 | 1015.2 |
| 20260506133157 | 54 | 329 | 1.7 | 2.6 | 0.00 | 0.00 | 0.00 | 87 | 1015.1 |
| 20260506132655 | 54 | 316 | 2.6 | 5.2 | 0.00 | 0.00 | 0.00 | 87 | 1015.0 |
| 20260506132151 | 54 | 255 | 0.9 | 0.9 | 0.00 | 0.00 | 0.00 | 87 | 1014.9 |
| 20260506131649 | 54 | 334 | 1.7 | 2.6 | 0.00 | 0.00 | 0.00 | 86 | 1015.1 |
| 20260506131145 | 54 | 345 | 2.6 | 4.3 | 0.00 | 0.00 | 0.00 | 86 | 1014.7 |
| 20260506130642 | 54 | 327 | 1.7 | 2.6 | 0.00 | 0.00 | 0.00 | 86 | 1015.0 |
| 20260506130139 | 54 | 11 | 2.6 | 4.3 | 0.00 | 0.00 | 0.00 | 86 | 1014.9 |
| 20260506125637 | 54 | 268 | 2.6 | 2.6 | 0.00 | 0.00 | 0.00 | 86 | 1015.0 |
| 20260506125135 | 54 | 14 | 2.6 | 5.2 | 0.00 | 0.00 | 0.00 | 86 | 1014.8 |
| 20260506124633 | 54 | 223 | 1.7 | 4.3 | 0.00 | 0.00 | 0.00 | 86 | 1014.6 |
| 20260506124131 | 54 | 300 | 3.5 | 6.1 | 0.00 | 0.00 | 0.00 | 85 | 1014.1 |
| 20260506123628 | 54 | 339 | 0.9 | 1.7 | 0.00 | 0.00 | 0.00 | 85 | 1014.4 |
| 20260506123127 | 55 | 291 | 6.1 | 7.8 | 0.00 | 0.00 | 0.00 | 84 | 1014.4 |
| 20260506122623 | 55 | 355 | 6.1 | 7.8 | 0.00 | 0.00 | 0.00 | 84 | 1014.5 |
| 20260506122120 | 55 | 353 | 1.7 | 2.6 | 0.00 | 0.00 | 0.00 | 83 | 1014.3 |
| 20260506121618 | 55 | 265 | 3.5 | 4.3 | 0.00 | 0.00 | 0.00 | 83 | 1014.4 |
| 20260506121114 | 55 | 352 | 3.5 | 6.1 | 0.00 | 0.00 | 0.00 | 83 | 1014.3 |
| 20260506120612 | 55 | 310 | 2.6 | 4.3 | 0.00 | 0.00 | 0.00 | 83 | 1014.1 |
| 20260506120109 | 55 | 330 | 3.5 | 6.1 | 0.00 | 0.00 | 0.00 | 83 | 1014.1 |
| 20260506115608 | 55 | 275 | 1.7 | 1.7 | 0.00 | 0.00 | 0.00 | 82 | 1014.0 |
| 20260506115106 | 55 | 321 | 4.3 | 5.2 | 0.00 | 0.00 | 0.00 | 82 | 1013.8 |
| 20260506114602 | 56 | 267 | 2.6 | 4.3 | 0.00 | 0.00 | 0.00 | 81 | 1013.9 |
| 20260506114101 | 56 | 337 | 2.6 | 4.3 | 0.00 | 0.00 | 0.00 | 81 | 1013.5 |
| 20260506113558 | 55 | 330 | 2.6 | 2.6 | 0.00 | 0.00 | 0.00 | 81 | 1013.5 |
| 20260506113055 | 55 | 288 | 1.7 | 1.7 | 0.00 | 0.00 | 0.00 | 81 | 1013.3 |
| 20260506112552 | 55 | 8 | 3.5 | 5.2 | 0.00 | 0.00 | 0.00 | 80 | 1013.6 |
| 20260506112049 | 56 | 341 | 4.3 | 5.2 | 0.00 | 0.00 | 0.00 | 80 | 1013.5 |
| 20260506111547 | 56 | 277 | 3.5 | 5.2 | 0.00 | 0.00 | 0.00 | 80 | 1013.3 |
| 20260506111044 | 56 | 317 | 6.1 | 7.8 | 0.00 | 0.00 | 0.00 | 80 | 1013.3 |
| 20260506110542 | 56 | 281 | 6.1 | 7.8 | 0.00 | 0.00 | 0.00 | 79 | 1013.2 |
| 20260506110039 | 56 | 287 | 3.5 | 4.3 | 0.00 | 0.00 | 0.00 | 79 | 1013.1 |
| 20260506105535 | 56 | 339 | 2.6 | 2.6 | 0.00 | 0.00 | 0.00 | 79 | 1013.1 |
| 20260506105032 | 57 | 357 | 2.6 | 4.3 | 0.00 | 0.00 | 0.00 | 79 | 1012.9 |
| 20260506104530 | 57 | 306 | 3.5 | 5.2 | 0.00 | 0.00 | 0.00 | 79 | 1012.9 |
| 20260506104028 | 57 | 263 | 2.6 | 2.6 | 0.00 | 0.00 | 0.00 | 79 | 1012.7 |
| 20260506103525 | 57 | 304 | 3.5 | 5.2 | 0.00 | 0.00 | 0.00 | 78 | 1012.7 |
| 20260506103022 | 58 | 335 | 2.6 | 5.2 | 0.00 | 0.00 | 0.00 | 77 | 1012.4 |
| 20260506102520 | 58 | 341 | 2.6 | 4.3 | 0.00 | 0.00 | 0.00 | 77 | 1012.3 |
| 20260506102017 | 58 | 311 | 3.5 | 4.3 | 0.00 | 0.00 | 0.00 | 77 | 1012.3 |
| 20260506101513 | 58 | 290 | 4.3 | 6.1 | 0.00 | 0.00 | 0.00 | 76 | 1012.0 |
| 20260506101011 | 58 | 352 | 2.6 | 2.6 | 0.00 | 0.00 | 0.00 | 77 | 1011.9 |
| 20260506100509 | 58 | 283 | 1.7 | 2.6 | 0.00 | 0.00 | 0.00 | 77 | 1012.0 |
| 20260506100007 | 59 | 309 | 0.9 | 0.9 | 0.00 | 0.00 | 0.00 | 77 | 1012.1 |
| 20260506095505 | 59 | 330 | 3.5 | 6.1 | 0.00 | 0.00 | 0.00 | 77 | 1012.1 |
| 20260506095000 | 59 | 328 | 1.7 | 1.7 | 0.00 | 0.00 | 0.00 | 77 | 1012.2 |
| 20260506094459 | 58 | 264 | 0.0 | 0.0 | 0.00 | 0.00 | 0.00 | 78 | 1012.0 |
| 20260506093956 | 59 | 310 | 2.6 | 2.6 | 0.00 | 0.00 | 0.00 | 78 | 1011.9 |
| 20260506093455 | 59 | 11 | 1.7 | 1.7 | 0.00 | 0.00 | 0.00 | 77 | 1012.0 |
| 20260506092952 | 59 | 275 | 0.0 | 0.0 | 0.00 | 0.00 | 0.00 | 78 | 1011.9 |
| 20260506092450 | 58 | 269 | 0.0 | 0.9 | 0.00 | 0.00 | 0.00 | 78 | 1012.1 |
| 20260506091946 | 59 | 358 | 1.7 | 2.6 | 0.00 | 0.00 | 0.00 | 78 | 1011.9 |
| 20260506091444 | 59 | 310 | 0.9 | 1.7 | 0.00 | 0.00 | 0.00 | 78 | 1011.9 |
| 20260506090941 | 59 | 310 | 1.7 | 1.7 | 0.00 | 0.00 | 0.00 | 78 | 1011.8 |
| 20260506090439 | 59 | 315 | 0.9 | 1.7 | 0.00 | 0.00 | 0.00 | 78 | 1011.7 |
| 20260506085935 | 59 | 324 | 3.5 | 4.3 | 0.00 | 0.00 | 0.00 | 78 | 1011.9 |
| 20260506085432 | 59 | 301 | 0.0 | 0.9 | 0.00 | 0.00 | 0.00 | 78 | 1011.5 |
| 20260506084928 | 59 | 36 | 0.9 | 0.9 | 0.00 | 0.00 | 0.00 | 78 | 1011.4 |
| 20260506084426 | 59 | 338 | 1.7 | 2.6 | 0.00 | 0.00 | 0.00 | 78 | 1011.5 |
| 20260506083921 | 59 | 270 | 2.6 | 4.3 | 0.00 | 0.00 | 0.00 | 78 | 1011.4 |
| 20260506083419 | 59 | 329 | 0.9 | 0.9 | 0.00 | 0.00 | 0.00 | 78 | 1011.3 |
| 20260506082916 | 59 | 282 | 0.9 | 0.9 | 0.00 | 0.00 | 0.00 | 78 | 1011.4 |
| 20260506082413 | 60 | 326 | 1.7 | 1.7 | 0.00 | 0.00 | 0.00 | 78 | 1011.1 |
| 20260506081908 | 60 | 25 | 0.0 | 0.9 | 0.00 | 0.00 | 0.00 | 78 | 1011.0 |
| 20260506081408 | 60 | 285 | 0.0 | 0.0 | 0.00 | 0.00 | 0.00 | 79 | 1011.0 |
| 20260506080904 | 60 | 324 | 0.9 | 0.9 | 0.00 | 0.00 | 0.00 | 79 | 1011.1 |
| 20260506080401 | 60 | 307 | 0.9 | 1.7 | 0.00 | 0.00 | 0.00 | 79 | 1011.1 |
| 20260506073345 | 60 | 314 | 1.7 | 2.6 | 0.00 | 0.00 | 0.00 | 79 | 1011.3 |
| 20260506072841 | 61 | 288 | 2.6 | 2.6 | 0.00 | 0.00 | 0.00 | 79 | 1011.3 |
| 20260506072339 | 61 | 276 | 2.6 | 2.6 | 0.00 | 0.00 | 0.00 | 79 | 1011.2 |
| 20260506071837 | 61 | 3 | 0.9 | 2.6 | 0.00 | 0.00 | 0.00 | 79 | 1011.2 |
| 20260506071335 | 60 | 341 | 1.7 | 1.7 | 0.00 | 0.00 | 0.00 | 79 | 1011.3 |
| 20260506070831 | 61 | 278 | 3.5 | 6.1 | 0.00 | 0.00 | 0.00 | 79 | 1011.5 |
| 20260506070328 | 61 | 2 | 2.6 | 2.6 | 0.00 | 0.00 | 0.00 | 80 | 1011.1 |
| 20260506062306 | 62 | 294 | 1.7 | 2.6 | 0.00 | 0.00 | 0.00 | 80 | 1011.1 |
| 20260506061801 | 62 | 312 | 0.9 | 0.9 | 0.00 | 0.00 | 0.00 | 79 | 1011.3 |
| 20260506061259 | 62 | 320 | 1.7 | 2.6 | 0.00 | 0.00 | 0.00 | 80 | 1011.3 |
| 20260506060757 | 62 | 301 | 4.3 | 5.2 | 0.00 | 0.00 | 0.00 | 80 | 1011.1 |
| 20260506060254 | 62 | 300 | 1.7 | 1.7 | 0.00 | 0.00 | 0.00 | 80 | 1011.1 |
| 20260506051226 | 64 | 306 | 3.5 | 5.2 | 0.00 | 0.00 | 0.00 | 80 | 1011.0 |
| 20260506050724 | 64 | 336 | 0.9 | 2.6 | 0.00 | 0.00 | 0.00 | 80 | 1010.6 |
| 20260506050221 | 64 | 359 | 0.9 | 2.6 | 0.00 | 0.00 | 0.00 | 80 | 1010.8 |
| 20260506044712 | 65 | 42 | 2.6 | 4.3 | 0.00 | 0.00 | 0.00 | 79 | 1010.8 |
| 20260506044209 | 65 | 299 | 3.5 | 4.3 | 0.00 | 0.00 | 0.00 | 79 | 1011.1 |
| 20260506043706 | 65 | 285 | 2.6 | 4.3 | 0.00 | 0.00 | 0.00 | 79 | 1010.8 |
| 20260506043204 | 66 | 359 | 4.3 | 6.1 | 0.00 | 0.00 | 0.00 | 79 | 1010.5 |
| 20260506042703 | 66 | 300 | 4.3 | 6.1 | 0.00 | 0.00 | 0.00 | 79 | 1010.6 |
| 20260506042201 | 66 | 276 | 2.6 | 2.6 | 0.00 | 0.00 | 0.00 | 79 | 1010.5 |
| 20260506041659 | 66 | 355 | 4.3 | 6.1 | 0.00 | 0.00 | 0.00 | 79 | 1010.4 |
| 20260506041155 | 67 | 333 | 3.5 | 5.2 | 0.00 | 0.00 | 0.00 | 79 | 1010.3 |
| 20260506040647 | 67 | 261 | 0.9 | 0.9 | 0.00 | 0.00 | 0.00 | 78 | 1010.1 |
| 20260506040144 | 68 | 354 | 3.5 | 4.3 | 0.00 | 0.00 | 0.00 | 78 | 1010.2 |
| 20260506035641 | 68 | 309 | 1.7 | 2.6 | 0.00 | 0.00 | 0.00 | 78 | 1010.1 |
| 20260506035137 | 69 | 4 | 3.5 | 5.2 | 0.00 | 0.00 | 0.00 | 78 | 1010.0 |
| 20260506034634 | 69 | 292 | 4.3 | 7.0 | 0.00 | 0.00 | 0.00 | 77 | 1010.0 |
| 20260506034131 | 69 | 278 | 2.6 | 2.6 | 0.00 | 0.00 | 0.00 | 77 | 1010.1 |
| 20260506033629 | 70 | 324 | 4.3 | 5.2 | 0.00 | 0.00 | 0.00 | 77 | 1009.7 |
| 20260506033126 | 70 | 307 | 2.6 | 2.6 | 0.00 | 0.00 | 0.00 | 77 | 1009.9 |
| 20260506032623 | 70 | 314 | 1.7 | 1.7 | 0.00 | 0.00 | 0.00 | 77 | 1010.0 |
| 20260506032120 | 70 | 296 | 1.7 | 1.7 | 0.00 | 0.00 | 0.00 | 77 | 1009.4 |
| 20260506031617 | 71 | 343 | 0.9 | 1.7 | 0.00 | 0.00 | 0.00 | 77 | 1009.4 |
| 20260506031114 | 71 | 282 | 2.6 | 4.3 | 0.00 | 0.00 | 0.00 | 76 | 1009.6 |
| 20260506030612 | 71 | 288 | 0.9 | 1.7 | 0.00 | 0.00 | 0.00 | 76 | 1009.6 |
| 20260506030109 | 71 | 2 | 2.6 | 4.3 | 0.00 | 0.00 | 0.00 | 76 | 1009.5 |
| 20260506025606 | 71 | 30 | 2.6 | 4.3 | 0.00 | 0.00 | 0.00 | 76 | 1009.3 |
| 20260506025102 | 72 | 358 | 3.5 | 5.2 | 0.00 | 0.00 | 0.00 | 76 | 1009.1 |
| 20260506024559 | 72 | 347 | 4.3 | 5.2 | 0.00 | 0.00 | 0.00 | 75 | 1009.0 |
| 20260506024056 | 74 | 358 | 4.3 | 7.8 | 0.00 | 0.00 | 0.00 | 73 | 1008.9 |
| 20260506023551 | 74 | 276 | 2.6 | 4.3 | 0.00 | 0.00 | 0.00 | 72 | 1008.2 |
| 20260506023049 | 74 | 23 | 2.6 | 4.3 | 0.00 | 0.00 | 0.00 | 72 | 1008.4 |
| 20260506022547 | 74 | 332 | 1.7 | 1.7 | 0.00 | 0.00 | 0.00 | 72 | 1008.2 |
| 20260506022044 | 74 | 348 | 4.3 | 5.2 | 0.00 | 0.00 | 0.00 | 72 | 1007.8 |
| 20260506021541 | 74 | 263 | 3.5 | 4.3 | 0.00 | 0.00 | 0.00 | 72 | 1008.0 |
| 20260506021039 | 74 | 261 | 0.9 | 0.9 | 0.00 | 0.00 | 0.00 | 71 | 1007.7 |
| 20260506020536 | 74 | 276 | 1.7 | 2.6 | 0.00 | 0.00 | 0.00 | 71 | 1007.5 |
| 20260506020033 | 75 | 291 | 1.7 | 1.7 | 0.00 | 0.00 | 0.00 | 71 | 1007.8 |
| 20260506015531 | 75 | 283 | 1.7 | 2.6 | 0.00 | 0.00 | 0.00 | 70 | 1007.5 |
| 20260506015027 | 75 | 354 | 2.6 | 4.3 | 0.00 | 0.00 | 0.00 | 70 | 1008.0 |
| 20260506014525 | 75 | 340 | 1.7 | 4.3 | 0.00 | 0.00 | 0.00 | 69 | 1007.7 |
| 20260506014021 | 75 | 286 | 0.9 | 1.7 | 0.00 | 0.00 | 0.00 | 69 | 1007.2 |
| 20260506013519 | 75 | 279 | 2.6 | 2.6 | 0.00 | 0.00 | 0.00 | 68 | 1007.1 |
| 20260506013015 | 76 | 348 | 3.5 | 4.3 | 0.00 | 0.00 | 0.00 | 70 | 1007.3 |
| 20260506012511 | 76 | 290 | 1.7 | 1.7 | 0.00 | 0.00 | 0.00 | 70 | 1007.4 |
| 20260506012009 | 77 | 312 | 4.3 | 6.1 | 0.00 | 0.00 | 0.00 | 70 | 1007.7 |
| 20260506011506 | 78 | 59 | 1.7 | 1.7 | 0.00 | 0.00 | 0.00 | 69 | 1007.4 |
| 20260506011002 | 78 | 11 | 2.6 | 4.3 | 0.00 | 0.00 | 0.00 | 68 | 1006.9 |
| 20260506010502 | 79 | 309 | 2.6 | 2.6 | 0.00 | 0.00 | 0.00 | 68 | 1007.1 |
| 20260506005957 | 79 | 331 | 2.6 | 5.2 | 0.00 | 0.00 | 0.00 | 67 | 1006.8 |
| 20260506005455 | 79 | 352 | 1.7 | 1.7 | 0.00 | 0.00 | 0.00 | 67 | 1006.8 |
| 20260506004950 | 79 | 280 | 0.9 | 1.7 | 0.00 | 0.00 | 0.00 | 67 | 1006.8 |
| 20260506004448 | 80 | 264 | 0.9 | 0.9 | 0.00 | 0.00 | 0.00 | 66 | 1006.6 |
| 20260506003944 | 80 | 298 | 1.7 | 1.7 | 0.00 | 0.00 | 0.00 | 66 | 1006.8 |
| 20260506003441 | 80 | 318 | 0.9 | 1.7 | 0.00 | 0.00 | 0.00 | 66 | 1006.8 |
| 20260506002937 | 81 | 283 | 0.9 | 1.7 | 0.00 | 0.00 | 0.00 | 65 | 1006.6 |
| 20260506002433 | 82 | 306 | 2.6 | 2.6 | 0.00 | 0.00 | 0.00 | 64 | 1006.5 |
| 20260506001929 | 82 | 340 | 3.5 | 4.3 | 0.00 | 0.00 | 0.00 | 64 | 1006.7 |
| 20260506001426 | 82 | 258 | 2.6 | 2.6 | 0.00 | 0.00 | 0.00 | 64 | 1007.0 |
| 20260506000923 | 83 | 8 | 2.6 | 4.3 | 0.00 | 0.00 | 0.00 | 62 | 1006.5 |
| 20260506000423 | 84 | 266 | 0.9 | 2.6 | 0.00 | 0.00 | 0.00 | 61 | 1006.5 |
| 20260505235917 | 84 | 8 | 2.6 | 2.6 | 0.00 | 0.00 | 0.00 | 58 | 1006.1 |
| 20260505235415 | 84 | 5 | 3.5 | 4.3 | 0.00 | 0.00 | 0.00 | 56 | 1006.0 |
| 20260505234912 | 84 | 235 | 1.7 | 1.7 | 0.00 | 0.00 | 0.00 | 59 | 1006.1 |
| 20260505234410 | 84 | 276 | 2.6 | 4.3 | 0.00 | 0.00 | 0.00 | 73 | 1006.1 |
| 20260505233906 | 85 | 279 | 3.5 | 6.1 | 0.00 | 0.00 | 0.00 | 72 | 1005.4 |
| 20260505233404 | 85 | 191 | 0.9 | 1.7 | 0.00 | 0.00 | 0.00 | 71 | 1005.4 |
| 20260505232901 | 86 | 165 | 1.7 | 1.7 | 0.00 | 0.00 | 0.00 | 70 | 1005.6 |
| 20260505232359 | 86 | 194 | 2.6 | 4.3 | 0.00 | 0.00 | 0.00 | 70 | 1005.2 |
| 20260505231855 | 87 | 175 | 2.6 | 4.3 | 0.00 | 0.00 | 0.00 | 68 | 1005.3 |
| 20260505231353 | 87 | 192 | 0.9 | 1.7 | 0.00 | 0.00 | 0.00 | 67 | 1005.5 |
| 20260505230851 | 87 | 194 | 2.6 | 2.6 | 0.00 | 0.00 | 0.00 | 67 | 1005.2 |
| 20260505230348 | 87 | 152 | 1.7 | 1.7 | 0.00 | 0.00 | 0.00 | 68 | 1005.3 |
| 20260505225844 | 87 | 198 | 0.9 | 0.9 | 0.00 | 0.00 | 0.00 | 68 | 1005.1 |
| 20260505225342 | 87 | 148 | 2.6 | 4.3 | 0.00 | 0.00 | 0.00 | 67 | 1005.1 |
| 20260505224837 | 87 | 211 | 1.7 | 1.7 | 0.00 | 0.00 | 0.00 | 67 | 1005.1 |
| 20260505224335 | 87 | 170 | 2.6 | 2.6 | 0.00 | 0.00 | 0.00 | 66 | 1005.0 |
| 20260505223832 | 87 | 192 | 0.9 | 1.7 | 0.00 | 0.00 | 0.00 | 66 | 1005.4 |
| 20260505223329 | 89 | 209 | 0.9 | 1.7 | 0.00 | 0.00 | 0.00 | 64 | 1004.8 |
| 20260505222824 | 89 | 191 | 3.5 | 5.2 | 0.00 | 0.00 | 0.00 | 63 | 1004.8 |
| 20260505222321 | 89 | 202 | 3.5 | 5.2 | 0.00 | 0.00 | 0.00 | 62 | 1005.1 |
| 20260505221818 | 90 | 194 | 0.9 | 0.9 | 0.00 | 0.00 | 0.00 | 60 | 1005.1 |
| 20260505221315 | 90 | 190 | 0.9 | 0.9 | 0.00 | 0.00 | 0.00 | 59 | 1005.1 |
| 20260505220812 | 91 | 220 | 1.7 | 2.6 | 0.00 | 0.00 | 0.00 | 56 | 1005.1 |
| 20260505220309 | 91 | 235 | 0.9 | 0.9 | 0.00 | 0.00 | 0.00 | 54 | 1004.9 |
| 20260505215807 | 91 | 157 | 2.6 | 2.6 | 0.00 | 0.00 | 0.00 | 54 | 1005.0 |
| 20260505215305 | 91 | 170 | 2.6 | 2.6 | 0.00 | 0.00 | 0.00 | 53 | 1005.0 |
| 20260505214802 | 92 | 195 | 0.9 | 0.9 | 0.00 | 0.00 | 0.00 | 53 | 1004.8 |
| 20260505214259 | 92 | 215 | 2.6 | 5.2 | 0.00 | 0.00 | 0.00 | 54 | 1005.0 |
| 20260505213756 | 92 | 248 | 4.3 | 6.1 | 0.00 | 0.00 | 0.00 | 54 | 1005.2 |
| 20260505213254 | 92 | 261 | 3.5 | 5.2 | 0.00 | 0.00 | 0.00 | 54 | 1005.3 |
| 20260505212749 | 92 | 242 | 0.9 | 0.9 | 0.00 | 0.00 | 0.00 | 54 | 1005.2 |
| 20260505212247 | 91 | 186 | 1.7 | 1.7 | 0.00 | 0.00 | 0.00 | 54 | 1005.2 |
| 20260505211743 | 91 | 186 | 1.7 | 1.7 | 0.00 | 0.00 | 0.00 | 54 | 1005.4 |
| 20260505211241 | 90 | 268 | 1.7 | 1.7 | 0.00 | 0.00 | 0.00 | 55 | 1005.3 |
| 20260505210737 | 91 | 256 | 2.6 | 4.3 | 0.00 | 0.00 | 0.00 | 56 | 1005.2 |
| 20260505210234 | 91 | 209 | 0.9 | 1.7 | 0.00 | 0.00 | 0.00 | 56 | 1005.4 |
| 20260505205732 | 91 | 192 | 1.7 | 2.6 | 0.00 | 0.00 | 0.00 | 56 | 1005.4 |
| 20260505205230 | 91 | 281 | 1.7 | 2.6 | 0.00 | 0.00 | 0.00 | 57 | 1005.2 |
| 20260505204726 | 91 | 206 | 1.7 | 2.6 | 0.00 | 0.00 | 0.00 | 58 | 1005.5 |
| 20260505204224 | 90 | 165 | 1.7 | 1.7 | 0.00 | 0.00 | 0.00 | 58 | 1005.8 |
| 20260505203721 | 90 | 205 | 7.0 | 7.8 | 0.00 | 0.00 | 0.00 | 58 | 1006.0 |
| 20260505203218 | 90 | 174 | 2.6 | 2.6 | 0.00 | 0.00 | 0.00 | 59 | 1005.8 |
| 20260505202713 | 89 | 156 | 6.1 | 7.8 | 0.00 | 0.00 | 0.00 | 60 | 1005.9 |
| 20260505202210 | 89 | 197 | 1.7 | 2.6 | 0.00 | 0.00 | 0.00 | 63 | 1005.9 |
| 20260505201706 | 88 | 196 | 2.6 | 4.3 | 0.00 | 0.00 | 0.00 | 63 | 1006.0 |
| 20260505201204 | 87 | 183 | 1.7 | 2.6 | 0.00 | 0.00 | 0.00 | 63 | 1005.8 |
| 20260505200702 | 87 | 186 | 5.2 | 8.7 | 0.00 | 0.00 | 0.00 | 64 | 1006.2 |
| 20260505200159 | 88 | 192 | 0.9 | 1.7 | 0.00 | 0.00 | 0.00 | 63 | 1006.3 |
| 20260505195654 | 87 | 201 | 7.0 | 7.0 | 0.00 | 0.00 | 0.00 | 64 | 1006.1 |
| 20260505195152 | 87 | 180 | 3.5 | 4.3 | 0.00 | 0.00 | 0.00 | 64 | 1006.1 |
| 20260505194649 | 88 | 246 | 3.5 | 6.1 | 0.00 | 0.00 | 0.00 | 64 | 1006.2 |
| 20260505194145 | 88 | 187 | 1.7 | 2.6 | 0.00 | 0.00 | 0.00 | 64 | 1006.4 |
| 20260505193642 | 87 | 232 | 3.5 | 5.2 | 0.00 | 0.00 | 0.00 | 66 | 1006.3 |
| 20260505193139 | 86 | 203 | 0.9 | 1.7 | 0.00 | 0.00 | 0.00 | 68 | 1006.2 |
| 20260505192638 | 86 | 172 | 4.3 | 6.1 | 0.00 | 0.00 | 0.00 | 67 | 1006.3 |
| 20260505192135 | 86 | 169 | 6.1 | 11.3 | 0.00 | 0.00 | 0.00 | 67 | 1006.3 |
| 20260505191633 | 86 | 179 | 5.2 | 7.8 | 0.00 | 0.00 | 0.00 | 67 | 1006.2 |
| 20260505191131 | 86 | 183 | 2.6 | 2.6 | 0.00 | 0.00 | 0.00 | 68 | 1006.1 |
| 20260505190626 | 84 | 200 | 0.9 | 0.9 | 0.00 | 0.00 | 0.00 | 70 | 1006.3 |
| 20260505190121 | 84 | 160 | 4.3 | 7.0 | 0.00 | 0.00 | 0.00 | 69 | 1006.5 |